[[{"header":{"parameterUnit":"m.s-1","parameterCategory":2,"la1":30.2991,"la2":30.254,"lo1":-89.0895,"lo2":-89.0444,"dy":0.0017,"dx":0.0017,"nx":28,"ny":28,"refTime":"2025-03-10T09:00:00:Z","depth":"0","parameterNumber":2,"parameterNumberName":"U-component_of_CURRENTS"},"data":[0,0,0,0,0,0,0,0,0,0,0,0,0,0,0,0,0,0,0,0,0,0,0,0,0,0,0,0,0,0,0,0,0,0,0,0,0,0,0,0,0,0,0,0,0,0,0,0,0,0,0,0,0,0,0,0,0,0,0.2646,0.2646,0,0.2657,0.2657,0.2657,0.2641,0.2641,0.264,0.264,0.262,0.2619,0.2619,0,0,0,0,0,0,0,0,0,0,0,0,0,0.2622,0.2622,0.2646,0.2646,0.2647,0.2657,0.2657,0.2657,0.2641,0.2641,0.264,0.264,0.262,0.2619,0.2619,0,0,0,0,0,0,0,0,0,0,0,0,0,0.2631,0.2622,0.2646,0.2642,0.2641,0.2657,0.2657,0.2657,0.2641,0.2641,0.264,0.264,0.262,0.2619,0.2619,0.2628,0,0,0.2618,0.2618,0,0,0,0,0,0,0,0,0.263,0.2631,0.2642,0.2642,0.2642,0.2649,0.2641,0.2647,0.2641,0.2639,0.264,0.2639,0.2628,0.2627,0.2628,0.2627,0.2627,0.2618,0.2618,0.2618,0.2618,0,0,0,0,0,0,0,0.263,0.2631,0.2648,0.2642,0.2642,0.2643,0.2643,0.2642,0.2634,0.2639,0.2639,0.2643,0.2628,0.2628,0.2627,0.2626,0.2618,0.2618,0.2618,0.2618,0.266,0.2661,0,0,0,0,0,0,0.2633,0.263,0.2648,0.2649,0.2637,0.2644,0.2644,0.2646,0.2635,0.2634,0.2644,0.2643,0.2629,0.2628,0.2627,0.2658,0.2618,0.2618,0.2617,0.2658,0.266,0.2661,0,0,0,0,0,0,0.2632,0.2634,0.2648,0.2642,0.2644,0.2645,0.2647,0.2646,0.2651,0.2639,0.2637,0.265,0.2629,0.2627,0.2637,0.2656,0.2617,0.2617,0.2657,0.2659,0.2661,0.2707,0,0,0,0,0,0,0.2631,0.2634,0.2637,0.2642,0.2644,0.2664,0.2647,0.2647,0.2655,0.2654,0.2644,0.2641,0.2628,0.2637,0.2636,0.2655,0.2617,0.2655,0.2658,0.266,0.2704,0.271,0.2716,0,0,0,0,0,0.263,0.2638,0.2637,0.2639,0.2648,0.2665,0.2667,0.2664,0.2656,0.2665,0.266,0.2641,0.2652,0.2638,0.2637,0.2655,0.2654,0.2657,0.266,0.2701,0.2709,0.2715,0,0,0,0,0,0,0.263,0.2638,0.2636,0.2646,0.2659,0.2664,0.2672,0.2671,0.2674,0.2672,0.2655,0.2653,0.2672,0.266,0.2645,0.2677,0.2651,0.2654,0.2683,0.269,0.2696,0.2708,0.2617,0,0,0,0,0,0.2632,0.2639,0.265,0.2659,0.2666,0.267,0.2677,0.2678,0.2682,0.2683,0.2676,0.2674,0.2683,0.2683,0.2687,0.27,0.2707,0.2713,0.2719,0.2724,0.2734,0.2765,0.2775,0.2671,0.2671,0.2671,0,0,0.2634,0.264,0.2643,0.2659,0.2667,0.2685,0.2673,0.2689,0.2704,0.268,0.2695,0.2696,0.2693,0.2713,0.2719,0.2703,0.2759,0.2728,0.2732,0.2739,0.277,0.278,0.2789,0.2673,0.2672,0.2672,0,0,0.2643,0.2648,0.2658,0.2672,0.2691,0.2699,0.2707,0.2718,0.2722,0.274,0.2732,0.2748,0.2749,0.2758,0.2761,0.2804,0.2793,0.2802,0.2836,0.2866,0.2875,0.2883,0.2909,0.2919,0.28,0.28,0.2801,0,0.2646,0.2657,0.2665,0.2682,0.2696,0.2708,0.2727,0.274,0.2752,0.2766,0.275,0.2781,0.2774,0.2812,0.2825,0.2818,0.2831,0.2806,0.2874,0.2882,0.2889,0.2914,0.2924,0.2803,0.2803,0.2802,0.2802,0,0.2662,0.2675,0.2686,0.271,0.2728,0.2748,0.277,0.2789,0.2795,0.281,0.2846,0.2845,0.2865,0.2867,0.2856,0.2907,0.2899,0.2881,0.2855,0.2902,0.2926,0.2935,0.2807,0.2806,0.2805,0.2804,0,0,0.2657,0.2689,0.2692,0.2704,0.2743,0.2757,0.2796,0.2834,0.2869,0.2879,0.2921,0.2937,0.2943,0.2948,0.2943,0.2964,0.3022,0.2944,0.2945,0.2969,0.3092,0.3089,0.3099,0.3015,0.3017,0.3018,0.3089,0,0.2667,0.2693,0.2713,0.2744,0.276,0.2791,0.2829,0.2867,0.2903,0.2949,0.2964,0.3002,0.2973,0.2989,0.3009,0.3027,0.305,0.3005,0.3044,0.3046,0.3035,0.3111,0.3096,0.3158,0.3099,0.31,0.3102,0,0.2672,0.2691,0.2716,0.2759,0.277,0.2795,0.2861,0.29,0.2976,0.3008,0.3055,0.3071,0.3118,0.3079,0.3134,0.3108,0.3106,0.311,0.3112,0.31,0.3061,0.3101,0.3178,0.317,0.3116,0.3115,0.3114,0,0.2651,0.2691,0.2707,0.2721,0.2776,0.2797,0.2835,0.2914,0.2962,0.3055,0.31,0.3155,0.3188,0.3203,0.3209,0.3179,0.3266,0.3223,0.3219,0.3218,0.321,0.3205,0.3283,0.3262,0.3262,0.3261,0.3261,0,0.2647,0.266,0.2695,0.2704,0.2737,0.2785,0.2842,0.29,0.2997,0.306,0.3125,0.3185,0.322,0.3266,0.3254,0.3283,0.3304,0.3251,0.3248,0.3226,0.3222,0.3216,0.3199,0.3264,0.3263,0.3263,0.3263,0,0.2617,0.2641,0.266,0.2708,0.2723,0.2747,0.2832,0.288,0.2984,0.3071,0.3102,0.3226,0.3302,0.3329,0.3375,0.3346,0.3309,0.3361,0.3334,0.3326,0.33,0.3285,0.3158,0.3071,0.3378,0.3378,0.3379,0,0.2602,0.2607,0.2645,0.2652,0.267,0.2714,0.2748,0.2857,0.2918,0.3087,0.3123,0.3247,0.333,0.3425,0.3425,0.3443,0.3333,0.3408,0.3345,0.3327,0.3308,0.3113,0.3033,0.3354,0.3354,0.3354,0.3354,0,0.2573,0.2582,0.2593,0.2611,0.2631,0.2662,0.2722,0.2771,0.2903,0.2996,0.3129,0.3222,0.3361,0.3415,0.3461,0.3453,0.331,0.341,0.3407,0.3322,0.31,0.3005,0.3274,0.3356,0.3356,0.3356,0.3356,0.3356,0.2541,0.2536,0.2547,0.2556,0.2575,0.2593,0.2597,0.2688,0.2779,0.2902,0.3056,0.3182,0.3385,0.3478,0.3431,0.3428,0.3307,0.3384,0.3377,0.3185,0.3072,0.3344,0.3406,0.3406,0.3406,0.3406,0.3407,0,0.2488,0.2485,0.2492,0.2486,0.2469,0.2512,0.2558,0.2557,0.2623,0.2812,0.2933,0.3178,0.3316,0.3418,0.3519,0.3438,0.3221,0.3379,0.3139,0.3067,0.3365,0.3341,0.3374,0.3374,0.3374,0.3374,0.3374,0.3374,0.246,0.2433,0.2433,0.2376,0.237,0.2322,0.2327,0.236,0.247,0.2628,0.2778,0.2943,0.3299,0.3582,0.3597,0.3496,0.3241,0.3125,0.3042,0.3349,0.3348,0.3348,0.3323,0.3352,0.3352,0.2636,0.2631,0.2628]},{"header":{"parameterUnit":"m.s-1","parameterCategory":2,"la1":30.2991,"la2":30.254,"lo1":-89.0895,"lo2":-89.0444,"dy":0.0017,"dx":0.0017,"nx":28,"ny":28,"refTime":"2025-03-10T09:00:00:Z","depth":"0","parameterNumber":3,"parameterNumberName":"V-component_of_CURRENTS"},"data":[0,0,0,0,0,0,0,0,0,0,0,0,0,0,0,0,0,0,0,0,0,0,0,0,0,0,0,0,0,0,0,0,0,0,0,0,0,0,0,0,0,0,0,0,0,0,0,0,0,0,0,0,0,0,0,0,0,0,0.0199,0.0199,0,0.0167,0.0167,0.0166,0.0136,0.0136,0.0135,0.0135,0.0084,0.0083,0.0082,0,0,0,0,0,0,0,0,0,0,0,0,0,0.0182,0.0183,0.0199,0.0199,0.0199,0.0167,0.0167,0.0166,0.0136,0.0136,0.0135,0.0135,0.0085,0.0083,0.0082,0,0,0,0,0,0,0,0,0,0,0,0,0,0.0172,0.0183,0.0199,0.0181,0.0179,0.0167,0.0167,0.0166,0.0136,0.0136,0.0135,0.0135,0.0085,0.0084,0.0082,0.0079,0,0,0.0077,0.0076,0,0,0,0,0,0,0,0,0.0173,0.0173,0.0184,0.0182,0.018,0.0156,0.0142,0.0136,0.0136,0.0151,0.0135,0.0135,0.0108,0.0104,0.0097,0.0077,0.0074,0.0077,0.0076,0.0075,0.0074,0,0,0,0,0,0,0,0.0174,0.0174,0.0185,0.0184,0.0181,0.0156,0.0155,0.014,0.013,0.0149,0.0148,0.0146,0.0107,0.0099,0.0096,0.0074,0.0077,0.0075,0.0074,0.0073,0.0042,0.0042,0,0,0,0,0,0,0.0184,0.0175,0.0186,0.0184,0.0177,0.0157,0.0156,0.0163,0.0131,0.0126,0.0147,0.0145,0.0102,0.0098,0.0094,0.0099,0.0075,0.0073,0.0072,0.0042,0.0042,0.0042,0,0,0,0,0,0,0.0184,0.0186,0.0187,0.0179,0.0178,0.0159,0.0167,0.0163,0.0157,0.0129,0.0124,0.0146,0.0102,0.0096,0.0087,0.0096,0.0073,0.0071,0.0042,0.0042,0.0042,0.0101,0,0,0,0,0,0,0.0184,0.0186,0.0192,0.018,0.0179,0.019,0.0167,0.0162,0.0158,0.0155,0.0127,0.0122,0.0101,0.0089,0.0085,0.0093,0.007,0.0042,0.0042,0.0042,0.0099,0.0104,0.0107,0,0,0,0,0,0.0183,0.0201,0.0193,0.0194,0.0189,0.0191,0.0188,0.0171,0.0158,0.0163,0.0141,0.0123,0.0088,0.0088,0.0083,0.0091,0.0041,0.0042,0.0042,0.0097,0.0103,0.0107,0,0,0,0,0,0,0.0196,0.0199,0.019,0.0207,0.0202,0.0187,0.0189,0.0176,0.0162,0.0158,0.0128,0.0122,0.0115,0.0094,0.0096,0.0082,0.006,0.006,0.0104,0.0109,0.0113,0.0131,0.0068,0,0,0,0,0,0.0202,0.0216,0.021,0.0222,0.0223,0.0205,0.0202,0.0192,0.0179,0.0172,0.0152,0.0129,0.0112,0.0105,0.0085,0.0082,0.0054,0.0082,0.0086,0.009,0.01,0.0062,0.0064,0.0044,0.0044,0.0044,0,0,0.0209,0.0213,0.022,0.0225,0.0218,0.0232,0.0202,0.0204,0.0213,0.0169,0.0172,0.0143,0.0114,0.0108,0.0103,0.0094,0.0079,0.009,0.0094,0.0102,0.0062,0.0064,0.0066,0.0044,0.0044,0.0044,0,0,0.0237,0.0235,0.0257,0.026,0.0258,0.025,0.0255,0.0243,0.0234,0.0231,0.02,0.0181,0.0157,0.0138,0.0125,0.0141,0.0101,0.0131,0.017,0.0133,0.0134,0.0135,0.0101,0.0098,0.0135,0.0135,0.0135,0,0.0244,0.0275,0.0262,0.0285,0.0296,0.0265,0.0292,0.028,0.0265,0.0264,0.024,0.0201,0.0173,0.0167,0.017,0.0151,0.0123,0.0156,0.0139,0.0139,0.0139,0.0103,0.01,0.0138,0.0137,0.0137,0.0137,0,0.0291,0.0313,0.0327,0.0349,0.0357,0.0374,0.0362,0.0359,0.0339,0.0327,0.0311,0.0264,0.0244,0.0226,0.0203,0.0193,0.0171,0.0148,0.013,0.0145,0.0106,0.0101,0.0142,0.0141,0.014,0.0139,0,0,0.0315,0.0355,0.0359,0.0386,0.0395,0.0411,0.042,0.0427,0.0443,0.04,0.041,0.0363,0.0331,0.0314,0.0274,0.0239,0.0209,0.02,0.0197,0.0172,0.0127,0.0106,0.0099,0.0181,0.0181,0.0181,0.0099,0,0.0356,0.0421,0.0426,0.0482,0.0517,0.0499,0.0517,0.0514,0.0501,0.0499,0.0434,0.0427,0.0367,0.0358,0.0312,0.0239,0.0199,0.0233,0.011,0.0107,0.0092,0.0094,0.0116,0.0045,0.0094,0.0093,0.0093,0,0.0403,0.0445,0.0513,0.0564,0.0577,0.0599,0.0629,0.0644,0.0626,0.0613,0.0581,0.053,0.0476,0.0419,0.0295,0.032,0.0233,0.0165,0.016,0.012,0.0078,0.0037,0.0034,-0.0126,0.0085,0.0086,0.0086,0,0.0441,0.0505,0.0566,0.0585,0.0632,0.0652,0.0673,0.0678,0.0712,0.069,0.07,0.0617,0.0584,0.0461,0.0316,0.0307,0.0173,0.014,0.0037,0.0034,0.002,0.0017,-0.0144,0.0051,0.0051,0.0052,0.0052,0,0.0492,0.0539,0.0589,0.0625,0.0699,0.0708,0.0779,0.0781,0.0805,0.0858,0.0766,0.0778,0.0593,0.0491,0.0346,0.0181,0.0191,0.0047,0.0013,0.004,0.004,-0.0127,-0.0232,0.0048,0.0049,0.005,0.005,0,0.0527,0.0558,0.0635,0.0696,0.0722,0.0776,0.0861,0.0916,0.0918,0.0979,0.0976,0.09,0.077,0.0573,0.0377,0.0234,-0.0032,0.0006,0.0051,0.0024,-0.022,-0.0321,-0.0516,-0.0614,-0.0119,-0.0119,-0.012,0,0.0552,0.0596,0.0691,0.0747,0.0779,0.0863,0.0929,0.0971,0.1045,0.1064,0.1105,0.0993,0.0953,0.0648,0.0364,0.0098,-0.0068,-0.0061,-0.0078,-0.0229,-0.0369,-0.0427,-0.05,-0.0079,-0.0079,-0.008,-0.008,0,0.0601,0.0631,0.0698,0.0819,0.09,0.1007,0.1105,0.1184,0.1238,0.1288,0.134,0.1305,0.1005,0.076,0.0375,0.0174,-0.0183,-0.0076,-0.0247,-0.0362,-0.0423,-0.0533,-0.0033,-0.0083,-0.0083,-0.0082,-0.0082,-0.0082,0.0634,0.0691,0.0783,0.0899,0.1002,0.1141,0.1251,0.1366,0.1497,0.1612,0.1548,0.157,0.1173,0.066,0.0328,-0.021,-0.0228,-0.0343,-0.0457,-0.0503,-0.0594,-0.0098,-0.0178,-0.0179,-0.0179,-0.0179,-0.0179,0,0.068,0.0752,0.086,0.1005,0.1133,0.118,0.1367,0.1501,0.1681,0.1799,0.1863,0.1734,0.1213,0.0678,-0.0054,-0.0468,-0.0642,-0.0711,-0.0794,-0.0855,-0.0419,-0.0411,-0.0528,-0.0528,-0.0528,-0.0528,-0.0527,-0.0527,0.0706,0.0815,0.0878,0.1092,0.1202,0.14,0.1522,0.1721,0.1878,0.2093,0.2174,0.2192,0.1849,0.0388,-0.0556,-0.0802,-0.1109,-0.1194,-0.1361,-0.1061,-0.1035,-0.101,-0.1026,-0.127,-0.1271,-0.172,-0.1725,-0.1729]}],[{"header":{"parameterUnit":"m.s-1","parameterCategory":2,"la1":30.2991,"la2":30.254,"lo1":-89.0895,"lo2":-89.0444,"dy":0.0017,"dx":0.0017,"nx":28,"ny":28,"refTime":"2025-03-10T09:00:00:Z","depth":"2","parameterNumber":2,"parameterNumberName":"U-component_of_CURRENTS"},"data":[0,0,0,0,0,0,0,0,0,0,0,0,0,0,0,0,0,0,0,0,0,0,0,0,0,0,0,0,0,0,0,0,0,0,0,0,0,0,0,0,0,0,0,0,0,0,0,0,0,0,0,0,0,0,0,0,0,0,0.2514,0.2514,0,0.2526,0.2526,0.2526,0.2515,0.2514,0.2514,0.2514,0.2499,0.2498,0.2498,0,0,0,0,0,0,0,0,0,0,0,0,0,0.2489,0.2489,0.2513,0.2514,0.2514,0.2526,0.2526,0.2526,0.2515,0.2514,0.2514,0.2514,0.2499,0.2498,0.2498,0,0,0,0,0,0,0,0,0,0,0,0,0,0.2498,0.2489,0.2513,0.2512,0.2512,0.2526,0.2526,0.2526,0.2515,0.2514,0.2514,0.2514,0.2499,0.2498,0.2498,0.2504,0,0,0.2497,0.2497,0,0,0,0,0,0,0,0,0.2497,0.2498,0.2512,0.2512,0.2512,0.252,0.2511,0.2518,0.2515,0.2511,0.2514,0.2514,0.2505,0.2504,0.2505,0.2503,0.2503,0.2497,0.2497,0.2497,0.2497,0,0,0,0,0,0,0,0.2497,0.2498,0.2516,0.2512,0.2512,0.2513,0.2514,0.2512,0.2508,0.2512,0.2511,0.2516,0.2505,0.2505,0.2504,0.2502,0.2497,0.2497,0.2497,0.2497,0.2539,0.2541,0,0,0,0,0,0,0.25,0.2497,0.2516,0.2517,0.2506,0.2514,0.2515,0.2516,0.2509,0.2508,0.2517,0.2516,0.2506,0.2504,0.2503,0.2537,0.2497,0.2497,0.2497,0.2538,0.254,0.2541,0,0,0,0,0,0,0.2499,0.2501,0.2515,0.2509,0.2511,0.2515,0.2517,0.2517,0.2524,0.2513,0.2511,0.2525,0.2505,0.2504,0.2515,0.2536,0.2497,0.2496,0.2537,0.2539,0.254,0.2587,0,0,0,0,0,0,0.2498,0.2501,0.2505,0.2509,0.2512,0.2532,0.2517,0.2517,0.2528,0.2527,0.252,0.2517,0.2505,0.2516,0.2515,0.2535,0.2496,0.2535,0.2537,0.254,0.2584,0.2591,0.2596,0,0,0,0,0,0.2497,0.2506,0.2505,0.2508,0.2517,0.2534,0.2535,0.2535,0.2529,0.2538,0.2535,0.2518,0.2531,0.2517,0.2515,0.2535,0.2534,0.2537,0.254,0.2582,0.259,0.2596,0,0,0,0,0,0,0.2498,0.2506,0.2505,0.2516,0.2528,0.2533,0.2542,0.2542,0.2547,0.2547,0.2532,0.253,0.255,0.2538,0.2523,0.2556,0.2531,0.2533,0.2563,0.257,0.2576,0.2588,0.2496,0,0,0,0,0,0.2501,0.2508,0.2518,0.2528,0.2536,0.2541,0.2548,0.2551,0.2555,0.2557,0.2552,0.2552,0.2561,0.2562,0.2566,0.2579,0.2585,0.2593,0.2599,0.2604,0.2614,0.2645,0.2654,0.2551,0.2551,0.2551,0,0,0.2503,0.251,0.2513,0.2529,0.2537,0.2555,0.2544,0.2562,0.2577,0.2555,0.2572,0.2574,0.2571,0.2591,0.2599,0.2582,0.2639,0.2608,0.2612,0.262,0.2649,0.2659,0.2668,0.2553,0.2552,0.2552,0,0,0.2513,0.252,0.253,0.2543,0.2563,0.2571,0.258,0.2591,0.2598,0.2616,0.261,0.2627,0.2629,0.2638,0.264,0.2683,0.2673,0.2683,0.2717,0.2746,0.2755,0.2763,0.2789,0.2798,0.2681,0.2681,0.2681,0,0.2518,0.2529,0.2537,0.2554,0.2568,0.2581,0.2599,0.2613,0.2627,0.2641,0.2628,0.2661,0.2654,0.269,0.2704,0.2697,0.271,0.2687,0.2754,0.2762,0.2769,0.2794,0.2804,0.2684,0.2684,0.2683,0.2683,0,0.2533,0.2547,0.2558,0.2582,0.26,0.262,0.2642,0.2662,0.2672,0.2686,0.2724,0.2724,0.2744,0.2747,0.2736,0.2787,0.278,0.2761,0.2735,0.2783,0.2805,0.2815,0.2688,0.2687,0.2686,0.2685,0,0,0.2531,0.2561,0.2565,0.2577,0.2616,0.2629,0.2669,0.2706,0.2741,0.2754,0.2797,0.2813,0.2821,0.2827,0.2822,0.2843,0.2902,0.2825,0.2825,0.2849,0.2971,0.2964,0.2973,0.2895,0.2897,0.2898,0.2968,0,0.2541,0.2567,0.2586,0.2617,0.2633,0.2664,0.2701,0.2739,0.2776,0.2823,0.2838,0.2878,0.285,0.2869,0.2888,0.2906,0.2929,0.2885,0.2923,0.2924,0.291,0.2985,0.2734,0.2776,0.2977,0.2979,0.298,0,0.2547,0.2565,0.2591,0.2632,0.2644,0.2669,0.2735,0.2773,0.2849,0.2882,0.2929,0.2947,0.2994,0.2957,0.3012,0.2986,0.2986,0.2988,0.2991,0.2975,0.2935,0.276,0.2785,0.2995,0.2994,0.2993,0.2992,0,0.2528,0.2567,0.2584,0.2597,0.2651,0.2673,0.2711,0.2789,0.2837,0.293,0.2975,0.303,0.3064,0.308,0.3086,0.3058,0.3142,0.3099,0.3092,0.3091,0.2882,0.286,0.3137,0.3137,0.3137,0.3137,0.3137,0,0.2525,0.2539,0.2574,0.2583,0.2617,0.2663,0.2722,0.2779,0.2875,0.2937,0.3002,0.3061,0.3097,0.3141,0.313,0.3156,0.3179,0.3123,0.3119,0.2893,0.2872,0.3058,0.3048,0.314,0.3139,0.3138,0.3138,0,0.2497,0.2521,0.254,0.2589,0.2605,0.263,0.2714,0.2762,0.2866,0.2952,0.2984,0.3103,0.3177,0.3204,0.3248,0.3218,0.3237,0.323,0.2969,0.2934,0.3152,0.3144,0.3241,0.3242,0.3242,0.3243,0.3243,0,0.2484,0.2489,0.2528,0.2536,0.2555,0.2602,0.2635,0.2743,0.2801,0.2967,0.3002,0.3124,0.3198,0.3287,0.3246,0.3251,0.3276,0.3026,0.2931,0.3182,0.3168,0.3159,0.315,0.2664,0.2659,0.2656,0.2653,0,0.2456,0.2467,0.2478,0.2498,0.252,0.255,0.261,0.2657,0.2786,0.2874,0.3002,0.3087,0.3182,0.3098,0.3124,0.3082,0.3011,0.2958,0.3283,0.2695,0.2649,0.2632,0.264,0.2621,0.2624,0.2626,0.2628,0.2629,0.2427,0.2423,0.2435,0.2446,0.2466,0.2483,0.2486,0.2559,0.2642,0.2721,0.2885,0.291,0.2947,0.2874,0.2785,0.2699,0.2906,0.2757,0.2763,0.2774,0.2713,0.2673,0.2637,0.264,0.2643,0.2645,0.2647,0,0.2369,0.2374,0.2382,0.2377,0.2352,0.2405,0.2448,0.2411,0.2448,0.2551,0.263,0.2446,0.2433,0.2447,0.2277,0.2299,0.2211,0.22,0.2046,0.2084,0.2116,0.2015,0.1757,0.1753,0.175,0.1747,0,0,0.234,0.2311,0.231,0.225,0.2253,0.2187,0.219,0.2156,0.218,0.2149,0.2141,0.2325,0.2416,0.2049,0.2016,0.1855,0.1942,0.1782,0.2509,0.2369,0.2396,0.2469,0.2362,0,0,0,0,0]},{"header":{"parameterUnit":"m.s-1","parameterCategory":2,"la1":30.2991,"la2":30.254,"lo1":-89.0895,"lo2":-89.0444,"dy":0.0017,"dx":0.0017,"nx":28,"ny":28,"refTime":"2025-03-10T09:00:00:Z","depth":"2","parameterNumber":3,"parameterNumberName":"V-component_of_CURRENTS"},"data":[0,0,0,0,0,0,0,0,0,0,0,0,0,0,0,0,0,0,0,0,0,0,0,0,0,0,0,0,0,0,0,0,0,0,0,0,0,0,0,0,0,0,0,0,0,0,0,0,0,0,0,0,0,0,0,0,0,0,0.0237,0.0236,0,0.0205,0.0205,0.0205,0.0175,0.0174,0.0174,0.0174,0.0124,0.0123,0.0122,0,0,0,0,0,0,0,0,0,0,0,0,0,0.0219,0.022,0.0237,0.0236,0.0236,0.0206,0.0205,0.0204,0.0175,0.0174,0.0174,0.0174,0.0124,0.0123,0.0122,0,0,0,0,0,0,0,0,0,0,0,0,0,0.021,0.022,0.0237,0.0218,0.0217,0.0206,0.0205,0.0204,0.0175,0.0174,0.0174,0.0174,0.0125,0.0123,0.0122,0.0119,0,0,0.0117,0.0116,0,0,0,0,0,0,0,0,0.0211,0.0211,0.0221,0.022,0.0218,0.0195,0.0181,0.0175,0.0175,0.0189,0.0174,0.0173,0.0147,0.0144,0.0137,0.0117,0.0115,0.0116,0.0115,0.0115,0.0114,0,0,0,0,0,0,0,0.0212,0.0212,0.0223,0.0221,0.0219,0.0195,0.0193,0.0179,0.0169,0.0188,0.0186,0.0185,0.0146,0.0139,0.0135,0.0114,0.0116,0.0115,0.0114,0.0113,0.0083,0.0083,0,0,0,0,0,0,0.0221,0.0213,0.0224,0.0222,0.0215,0.0195,0.0194,0.0201,0.017,0.0165,0.0185,0.0184,0.0142,0.0137,0.0134,0.0137,0.0115,0.0113,0.0112,0.0082,0.0083,0.0083,0,0,0,0,0,0,0.0221,0.0223,0.0225,0.0217,0.0216,0.0197,0.0205,0.0201,0.0195,0.0168,0.0163,0.0184,0.0141,0.0136,0.0126,0.0135,0.0112,0.0111,0.0082,0.0082,0.0083,0.014,0,0,0,0,0,0,0.0221,0.0223,0.0229,0.0218,0.0217,0.0228,0.0205,0.0201,0.0196,0.0193,0.0165,0.016,0.014,0.0129,0.0125,0.0132,0.011,0.0082,0.0082,0.0083,0.0138,0.0142,0.0145,0,0,0,0,0,0.0221,0.0238,0.023,0.0231,0.0227,0.0228,0.0226,0.0209,0.0196,0.0201,0.0179,0.0161,0.0127,0.0128,0.0123,0.013,0.0082,0.0082,0.0083,0.0136,0.0141,0.0145,0,0,0,0,0,0,0.0232,0.0236,0.0227,0.0244,0.0239,0.0224,0.0226,0.0213,0.02,0.0195,0.0167,0.0161,0.0153,0.0133,0.0135,0.0121,0.01,0.01,0.0142,0.0147,0.0151,0.0169,0.0108,0,0,0,0,0,0.0239,0.0252,0.0247,0.0258,0.0259,0.0241,0.0238,0.0228,0.0216,0.0209,0.019,0.0167,0.0151,0.0143,0.0125,0.0121,0.0093,0.012,0.0124,0.0128,0.0138,0.01,0.0101,0.0084,0.0084,0.0084,0,0,0.0245,0.0249,0.0255,0.0261,0.0254,0.0268,0.0239,0.0241,0.0249,0.0206,0.0209,0.0181,0.0152,0.0147,0.0141,0.0132,0.0117,0.0129,0.0132,0.014,0.01,0.0102,0.0103,0.0084,0.0084,0.0084,0,0,0.0272,0.027,0.0292,0.0294,0.0292,0.0285,0.0289,0.0278,0.0269,0.0266,0.0236,0.0216,0.0193,0.0175,0.0163,0.0177,0.0138,0.0168,0.0205,0.0168,0.0169,0.017,0.0135,0.0132,0.0171,0.0171,0.0171,0,0.0278,0.0309,0.0296,0.0319,0.0329,0.0299,0.0326,0.0313,0.0299,0.0297,0.0275,0.0236,0.0208,0.0202,0.0205,0.0187,0.0159,0.0192,0.0174,0.0174,0.0174,0.0137,0.0133,0.0174,0.0174,0.0173,0.0173,0,0.0324,0.0346,0.036,0.0381,0.0388,0.0406,0.0394,0.039,0.0371,0.0358,0.0342,0.0297,0.0277,0.0259,0.0238,0.0227,0.0204,0.0182,0.0165,0.0179,0.0139,0.0135,0.0178,0.0177,0.0176,0.0176,0,0,0.0347,0.0386,0.0391,0.0417,0.0426,0.0441,0.045,0.0457,0.0471,0.0429,0.0439,0.0392,0.0361,0.0344,0.0305,0.027,0.0239,0.0232,0.0229,0.0204,0.0156,0.0134,0.0126,0.0212,0.0211,0.0211,0.0129,0,0.0387,0.0451,0.0455,0.0511,0.0545,0.0527,0.0545,0.0541,0.0528,0.0525,0.0461,0.0454,0.0396,0.0386,0.034,0.0269,0.0229,0.0263,0.0141,0.0137,0.0121,0.0121,0.0143,0.0071,0.0123,0.0123,0.0122,0,0.0432,0.0474,0.054,0.0591,0.0603,0.0625,0.0653,0.0668,0.0649,0.0637,0.0603,0.0554,0.05,0.0444,0.0321,0.0346,0.026,0.0193,0.0188,0.0147,0.0107,0.0064,0.0059,0.0113,0.0114,0.0114,0.0115,0,0.0469,0.0532,0.0592,0.061,0.0657,0.0676,0.0697,0.0701,0.0734,0.071,0.072,0.0637,0.0604,0.0482,0.0339,0.0331,0.0196,0.0166,0.0063,0.006,0.0045,0.0042,0.0077,0.0077,0.0077,0.0077,0.0078,0,0.0518,0.0564,0.0614,0.0649,0.0721,0.073,0.0799,0.0802,0.0824,0.0875,0.0784,0.0794,0.0612,0.051,0.0367,0.0203,0.0213,0.0072,0.0038,0.0065,0.0064,0.0075,0.0076,0.0074,0.0075,0.0076,0.0076,0,0.0552,0.0583,0.0658,0.0719,0.0744,0.0796,0.088,0.0934,0.0935,0.0993,0.0989,0.0912,0.0781,0.0588,0.0393,0.0252,0.009,0.0027,0.0071,0.0044,-0.003,-0.0025,-0.0095,-0.0096,-0.0097,-0.0098,-0.0099,0,0.0576,0.0619,0.0713,0.0768,0.08,0.0882,0.0947,0.0988,0.106,0.1075,0.1114,0.1,0.0955,0.0651,0.0373,0.0111,0.0081,-0.0043,-0.0058,-0.0021,-0.0047,-0.004,-0.0034,-0.006,-0.0061,-0.0061,-0.0061,0,0.0624,0.0654,0.072,0.0838,0.0918,0.1024,0.1119,0.1195,0.1247,0.1292,0.1336,0.1296,0.0998,0.0737,0.0357,0.0179,-0.0003,-0.0059,-0.0035,-0.0015,0.0006,-0.0018,-0.0012,-0.0065,-0.0064,-0.0064,-0.0064,-0.0064,0.0657,0.0713,0.0803,0.0917,0.1018,0.1154,0.1261,0.1364,0.1486,0.1565,0.1511,0.1455,0.1128,0.0656,0.032,-0.0038,-0.0013,-0.013,-0.0127,-0.0124,-0.01,-0.0082,-0.0164,-0.0165,-0.0165,-0.0165,-0.0165,0,0.0702,0.0772,0.0879,0.1021,0.1145,0.1193,0.1374,0.1484,0.1642,0.1686,0.1719,0.1413,0.1093,0.0712,0.0183,-0.0123,-0.0145,-0.0221,-0.0179,-0.0173,-0.0168,-0.0145,-0.0223,-0.0224,-0.0225,-0.0226,0,0,0.0727,0.0834,0.0896,0.1104,0.1211,0.1399,0.1517,0.1667,0.1754,0.1821,0.1782,0.1682,0.1215,0.0823,0.0389,0.0084,0.0032,0.0024,0.0106,0.0215,0.0223,-0.0081,-0.0035,0,0,0,0,0]}],[{"header":{"parameterUnit":"m.s-1","parameterCategory":2,"la1":30.2991,"la2":30.254,"lo1":-89.0895,"lo2":-89.0444,"dy":0.0017,"dx":0.0017,"nx":28,"ny":28,"refTime":"2025-03-10T09:00:00:Z","depth":"4","parameterNumber":2,"parameterNumberName":"U-component_of_CURRENTS"},"data":[0,0,0,0,0,0,0,0,0,0,0,0,0,0,0,0,0,0,0,0,0,0,0,0,0,0,0,0,0,0,0,0,0,0,0,0,0,0,0,0,0,0,0,0,0,0,0,0,0,0,0,0,0,0,0,0,0,0,0.1512,0.1513,0,0.1568,0.1569,0.1569,0.1617,0.1618,0.1618,0.1619,0.1684,0.1685,0.1686,0,0,0,0,0,0,0,0,0,0,0,0,0,0.1447,0.1447,0.1512,0.1513,0.1514,0.1568,0.1569,0.1569,0.1617,0.1618,0.1619,0.1619,0.1684,0.1685,0.1687,0,0,0,0,0,0,0,0,0,0,0,0,0,0.1484,0.1448,0.1512,0.1546,0.1549,0.1568,0.1569,0.157,0.1617,0.1618,0.1619,0.162,0.1683,0.1685,0.1687,0.1676,0,0,0.1692,0.1692,0,0,0,0,0,0,0,0,0.1482,0.1487,0.154,0.1543,0.1547,0.1588,0.157,0.1606,0.1616,0.1589,0.1619,0.162,0.1653,0.1658,0.1663,0.1679,0.1682,0.1692,0.1693,0.1694,0.1694,0,0,0,0,0,0,0,0.148,0.1484,0.1533,0.1541,0.1545,0.1558,0.1564,0.1577,0.1614,0.1592,0.1596,0.1604,0.1655,0.1661,0.1665,0.1683,0.1692,0.1693,0.1694,0.1695,0.1802,0.1804,0,0,0,0,0,0,0.1475,0.1482,0.1531,0.1535,0.1519,0.1558,0.1565,0.1573,0.1613,0.1621,0.1603,0.1606,0.1658,0.1663,0.1668,0.1755,0.1694,0.1695,0.1696,0.18,0.1803,0.1805,0,0,0,0,0,0,0.1473,0.1479,0.1529,0.1511,0.1519,0.1559,0.1566,0.1573,0.1615,0.1623,0.163,0.1643,0.1659,0.1665,0.1715,0.1754,0.1696,0.1697,0.1798,0.1801,0.1804,0.1866,0,0,0,0,0,0,0.1471,0.1478,0.1499,0.1511,0.1519,0.1563,0.1566,0.1574,0.1618,0.1623,0.1658,0.1663,0.166,0.1713,0.1717,0.1755,0.1699,0.1796,0.1799,0.1803,0.1862,0.1871,0.1878,0,0,0,0,0,0.1469,0.1486,0.1499,0.1506,0.1541,0.1565,0.1571,0.1601,0.1619,0.1642,0.1672,0.1664,0.1738,0.1715,0.172,0.1759,0.1794,0.1798,0.1803,0.1858,0.1869,0.1878,0,0,0,0,0,0,0.1471,0.1493,0.1508,0.1533,0.156,0.1574,0.1603,0.1621,0.1661,0.1679,0.1684,0.1692,0.1751,0.1747,0.1722,0.1802,0.1766,0.1771,0.1807,0.1817,0.1825,0.183,0.17,0,0,0,0,0,0.1479,0.1502,0.1522,0.1548,0.1564,0.1591,0.1612,0.1633,0.1661,0.1682,0.1707,0.1736,0.1764,0.1786,0.1807,0.1847,0.1846,0.1877,0.1885,0.1892,0.1901,0.1933,0.1944,0.1818,0.1818,0.1818,0,0,0.1488,0.1505,0.152,0.1552,0.1576,0.1604,0.1607,0.165,0.1683,0.1681,0.1748,0.1769,0.1783,0.1832,0.1858,0.1838,0.1929,0.1897,0.1903,0.1908,0.1938,0.195,0.1961,0.1821,0.1821,0.182,0,0,0.1505,0.1534,0.1556,0.1581,0.1624,0.164,0.166,0.1697,0.173,0.1784,0.1797,0.1845,0.1886,0.1905,0.1917,0.1984,0.1974,0.1997,0.2043,0.2074,0.2084,0.2093,0.2111,0.2122,0.1999,0.1999,0.1999,0,0.1521,0.1546,0.1569,0.1595,0.1623,0.166,0.1692,0.1725,0.1778,0.1811,0.1819,0.1905,0.1918,0.1975,0.2003,0.2003,0.2016,0.2001,0.2084,0.2093,0.2101,0.2117,0.2128,0.2003,0.2002,0.2002,0.2002,0,0.154,0.1577,0.1596,0.1641,0.1673,0.1711,0.1753,0.1802,0.1848,0.188,0.1962,0.1987,0.2038,0.2053,0.205,0.2121,0.211,0.2091,0.2055,0.2118,0.2131,0.2141,0.2008,0.2007,0.2006,0.2005,0,0,0.153,0.1596,0.1608,0.1637,0.1704,0.1727,0.1796,0.1859,0.1917,0.1975,0.2045,0.2101,0.2129,0.2145,0.2156,0.2184,0.2254,0.2171,0.2171,0.2183,0.2324,0.2178,0.2174,0.2253,0.2255,0.2257,0.231,0,0.1545,0.1594,0.163,0.1693,0.1722,0.1782,0.1841,0.1908,0.1974,0.2053,0.2097,0.2171,0.2159,0.2203,0.2231,0.2256,0.2283,0.2241,0.2267,0.2268,0.2125,0.2182,0.2264,0.2317,0.2319,0.2321,0.2322,0,0.1545,0.1582,0.164,0.172,0.1742,0.1794,0.1901,0.1961,0.207,0.2127,0.2206,0.2247,0.232,0.2295,0.2363,0.2341,0.2344,0.2347,0.2349,0.2196,0.2139,0.2242,0.2339,0.2338,0.2337,0.2335,0.2334,0,0.1506,0.1587,0.1636,0.1663,0.1759,0.1815,0.1881,0.1992,0.2058,0.2191,0.2253,0.2336,0.2395,0.2419,0.2433,0.2415,0.2487,0.2455,0.2322,0.2312,0.2399,0.2389,0.2496,0.2496,0.2496,0.2496,0.2495,0,0.1486,0.153,0.1631,0.1655,0.1732,0.1811,0.1912,0.1994,0.2121,0.2194,0.2296,0.2354,0.2432,0.2475,0.247,0.2424,0.2518,0.234,0.2319,0.2424,0.2416,0.2406,0.2394,0.2498,0.2497,0.2497,0.2496,0,0.143,0.1496,0.1557,0.1671,0.1714,0.1773,0.1919,0.1983,0.2122,0.2222,0.227,0.2397,0.2453,0.2497,0.2542,0.2457,0.2438,0.2395,0.2516,0.2499,0.2233,0.2225,0.2252,0.2247,0.2243,0.224,0.2237,0,0.14,0.1427,0.1552,0.1592,0.1653,0.1755,0.182,0.197,0.2035,0.2218,0.2245,0.2364,0.2422,0.2369,0.2429,0.241,0.2373,0.2344,0.2275,0.2233,0.2211,0.2208,0.2206,0.2231,0.223,0.2229,0.2228,0,0.1341,0.1402,0.145,0.1534,0.1609,0.1678,0.1785,0.182,0.1981,0.212,0.2169,0.2198,0.2254,0.2276,0.2281,0.2259,0.2353,0.2302,0.2309,0.2244,0.2208,0.2189,0.2191,0.2214,0.2216,0.2217,0.2218,0,0.1301,0.1318,0.1391,0.1451,0.1536,0.1571,0.1642,0.171,0.1791,0.1986,0.1996,0.2115,0.2234,0.2198,0.2202,0.2175,0.2132,0.2042,0.2062,0.2078,0.1993,0.1919,0.1827,0,0,0,0,0,0.1247,0.125,0.1299,0.1349,0.1427,0.1478,0.1599,0.1672,0.1823,0.1807,0.1899,0.194,0.196,0.2025,0.1959,0.2117,0.2137,0.203,0.2043,0.2138,0.2154,0.2068,0,0,0,0,0,0,0.1207,0.1246,0.1259,0.1251,0.1267,0.1337,0.1408,0.1512,0.1515,0.1675,0.1699,0.1814,0.1866,0.1973,0.1919,0.1935,0.19,0.2108,0.2103,0.2129,0.2143,0.2156,0.2073,0,0,0,0,0]},{"header":{"parameterUnit":"m.s-1","parameterCategory":2,"la1":30.2991,"la2":30.254,"lo1":-89.0895,"lo2":-89.0444,"dy":0.0017,"dx":0.0017,"nx":28,"ny":28,"refTime":"2025-03-10T09:00:00:Z","depth":"4","parameterNumber":3,"parameterNumberName":"V-component_of_CURRENTS"},"data":[0,0,0,0,0,0,0,0,0,0,0,0,0,0,0,0,0,0,0,0,0,0,0,0,0,0,0,0,0,0,0,0,0,0,0,0,0,0,0,0,0,0,0,0,0,0,0,0,0,0,0,0,0,0,0,0,0,0,0.0268,0.0268,0,0.0252,0.0252,0.0251,0.0238,0.0238,0.0238,0.0238,0.0208,0.0207,0.0207,0,0,0,0,0,0,0,0,0,0,0,0,0,0.0251,0.0252,0.0268,0.0268,0.0268,0.0252,0.0252,0.0251,0.0238,0.0238,0.0238,0.0238,0.0208,0.0207,0.0206,0,0,0,0,0,0,0,0,0,0,0,0,0,0.0249,0.0252,0.0268,0.026,0.0259,0.0252,0.0252,0.0251,0.0238,0.0238,0.0238,0.0238,0.0209,0.0207,0.0206,0.0201,0,0,0.0203,0.0202,0,0,0,0,0,0,0,0,0.0249,0.0249,0.0261,0.0261,0.026,0.0248,0.0235,0.0234,0.0239,0.0246,0.0238,0.0238,0.0221,0.0218,0.0215,0.02,0.0198,0.0203,0.0202,0.0202,0.0201,0,0,0,0,0,0,0,0.0249,0.025,0.0261,0.0261,0.026,0.0245,0.0244,0.0234,0.0233,0.0245,0.0244,0.0244,0.022,0.0216,0.0214,0.0198,0.0203,0.0202,0.0201,0.0201,0.0176,0.0176,0,0,0,0,0,0,0.0255,0.025,0.0261,0.0261,0.0255,0.0245,0.0245,0.0251,0.0233,0.0231,0.0244,0.0243,0.0218,0.0215,0.0213,0.0217,0.0202,0.0201,0.02,0.0176,0.0176,0.0176,0,0,0,0,0,0,0.0255,0.0256,0.0262,0.0255,0.0255,0.0246,0.0253,0.0251,0.0251,0.0233,0.023,0.0246,0.0218,0.0214,0.0209,0.0215,0.02,0.0199,0.0176,0.0176,0.0176,0.0217,0,0,0,0,0,0,0.0254,0.0256,0.0263,0.0256,0.0255,0.0265,0.0253,0.0251,0.0251,0.025,0.0234,0.0231,0.0217,0.0211,0.0208,0.0213,0.0198,0.0176,0.0176,0.0176,0.0216,0.0218,0.0221,0,0,0,0,0,0.0254,0.0267,0.0263,0.0265,0.0265,0.0266,0.0264,0.0257,0.0251,0.0255,0.0243,0.0231,0.0209,0.0211,0.0207,0.0212,0.0176,0.0176,0.0176,0.0214,0.0218,0.0221,0,0,0,0,0,0,0.0261,0.0266,0.0263,0.0276,0.0273,0.0264,0.0268,0.0261,0.0255,0.0254,0.0235,0.0231,0.0227,0.0213,0.0215,0.0203,0.0189,0.0188,0.0219,0.0222,0.0225,0.0239,0.0197,0,0,0,0,0,0.0267,0.0279,0.0276,0.0286,0.0286,0.0277,0.0276,0.0272,0.0265,0.0262,0.0251,0.0236,0.0224,0.0219,0.0206,0.0203,0.0178,0.0201,0.0204,0.0206,0.0214,0.0177,0.0177,0.0176,0.0176,0.0176,0,0,0.0272,0.0276,0.0282,0.0288,0.0285,0.0295,0.0277,0.028,0.0288,0.026,0.0265,0.0246,0.0224,0.022,0.0217,0.021,0.0192,0.0206,0.0209,0.0215,0.0177,0.0177,0.0177,0.0176,0.0176,0.0176,0,0,0.0291,0.0293,0.0309,0.0312,0.0313,0.0309,0.0313,0.0307,0.0304,0.0304,0.0284,0.0269,0.0255,0.024,0.023,0.0238,0.0207,0.0232,0.0258,0.0222,0.0222,0.0221,0.0187,0.0183,0.0234,0.0234,0.0234,0,0.0296,0.032,0.0313,0.0329,0.0339,0.032,0.034,0.0333,0.0326,0.0326,0.0312,0.0283,0.0264,0.0256,0.0259,0.0245,0.022,0.025,0.0226,0.0225,0.0224,0.0189,0.0184,0.0236,0.0235,0.0235,0.0235,0,0.0327,0.0347,0.0357,0.0375,0.0381,0.0395,0.0389,0.0388,0.0379,0.0371,0.0359,0.0325,0.0311,0.0296,0.0282,0.0267,0.025,0.0234,0.0221,0.0227,0.0189,0.0183,0.0238,0.0238,0.0237,0.0237,0,0,0.0341,0.0374,0.0379,0.04,0.041,0.0421,0.043,0.0437,0.0449,0.042,0.0427,0.0392,0.037,0.0357,0.0327,0.0293,0.026,0.0266,0.0263,0.0237,0.0181,0.0163,0.0154,0.0239,0.0239,0.0238,0.0156,0,0.0369,0.0416,0.0423,0.0467,0.0492,0.0484,0.0499,0.0499,0.0491,0.0489,0.044,0.0435,0.0394,0.0388,0.0347,0.0286,0.0248,0.0284,0.0174,0.0171,0.0159,0.0148,0.0236,0.0152,0.0151,0.015,0.0149,0,0.0398,0.043,0.0482,0.0525,0.0535,0.0556,0.0582,0.0595,0.0581,0.0573,0.0547,0.0509,0.0462,0.0422,0.0313,0.0339,0.0268,0.0211,0.0206,0.0173,0.0143,0.0144,0.0138,0.0139,0.014,0.0141,0.0141,0,0.0418,0.047,0.0518,0.0533,0.0575,0.0596,0.0616,0.0622,0.0648,0.063,0.0637,0.0566,0.0539,0.0436,0.0318,0.0317,0.0189,0.0171,0.0083,0.0081,0.0104,0.0105,0.009,0.009,0.009,0.009,0.0091,0,0.0447,0.0486,0.0535,0.0563,0.0625,0.0637,0.0697,0.07,0.0719,0.0753,0.0687,0.0682,0.0541,0.045,0.0333,0.0191,0.0197,0.0087,0.0058,0.0123,0.0127,0.01,0.0102,0.0087,0.0088,0.0089,0.0089,0,0.0463,0.0493,0.0555,0.0613,0.0639,0.0684,0.0763,0.0803,0.0809,0.0847,0.0844,0.0769,0.0648,0.0495,0.0327,0.0222,0.0083,0.003,0.0113,0.009,-0.0006,-0.0001,-0.0074,-0.0076,-0.0077,-0.0078,-0.0078,0,0.0474,0.0509,0.0596,0.0644,0.0677,0.0752,0.0807,0.0847,0.0893,0.0898,0.0913,0.0813,0.0739,0.0492,0.0323,0.009,0.0055,-0.0022,-0.0019,-0.0002,-0.0023,-0.0016,-0.0009,-0.008,-0.008,-0.0081,-0.0081,0,0.0498,0.0531,0.0585,0.0686,0.0758,0.0845,0.0923,0.0962,0.1002,0.1005,0.097,0.0838,0.0697,0.0496,0.0312,0.0145,0.0025,-0.0034,-0.0033,-0.0031,-0.0011,-0.0028,-0.0021,-0.0085,-0.0084,-0.0084,-0.0084,0,0.0515,0.0557,0.0634,0.0723,0.0819,0.0908,0.0951,0.1,0.1044,0.1039,0.1024,0.0868,0.078,0.0524,0.0356,0.0186,0.0139,0.008,0.0074,0.0077,0.0139,0.0188,0.015,0,0,0,0,0,0.053,0.0583,0.0666,0.0768,0.0864,0.0927,0.1016,0.1049,0.1082,0.1066,0.1049,0.0915,0.0662,0.0555,0.0382,0.0323,0.0102,0.0112,0.003,-0.0106,-0.0102,-0.0057,0,0,0,0,0,0,0.054,0.0618,0.0665,0.0791,0.0867,0.0981,0.1043,0.1067,0.1059,0.1056,0.0929,0.0864,0.0622,0.0763,0.0377,0.0325,0.0246,-0.0004,-0.0008,-0.0109,-0.0105,-0.0101,-0.0054,0,0,0,0,0]}]]